Regional Weather Roundup
Issued by NWS

Home | Current Version | Previous Version | Text Only | Print | Product List | Glossary On
Versions: 1 2 3 4 5 6 7 8 9 10 11 12 13 14 15 16 17 18 19 20 21 22 23 24 25 26 27 28 29 30 31 32 33 34 35 36 37 38 39 40 41 42 43 44 45 46 47 48 49 50
564
ASUS44 KFWD 221315
RWRTX
NORTH TEXAS HOURLY WEATHER ROUNDUP
NATIONAL WEATHER SERVICE FORT WORTH TX
800 AM CDT SUN APR 22 2018

NOTE: "FAIR" INDICATES FEW OR NO CLOUDS BELOW 12,000 FEET WITH NO
SIGNIFICANT WEATHER AND/OR OBSTRUCTIONS TO VISIBILITY.

TXZ118-119-221400-
DALLAS/FORT WORTH METROPLEX

CITY           SKY/WX    TMP DP  RH WIND       PRES   REMARKS
DFW AIRPORT    FAIR      52  45  77 NW17G24   30.09R
DALLAS LOVE    PTSUNNY   53  45  74 NW14      30.09R
FTW MEACHAM    FAIR      53  46  77 NW12      30.11R
DAL-EXECUTIVE  CLOUDY    53  45  74 NW17      30.08R
FTW-ALLIANCE   FAIR      51  45  79 NW13      30.11R
FTW-NAS-JRB    FAIR      53  44  71 NW14      30.12S
FTW-SPINKS     MOSUNNY   52  45  76 N13G23    30.12R
ARLINGTON      FAIR      51  45  79 NW12      30.10R
GRAND PRAIRIE  PTSUNNY   52  43  71 NW7       30.12R
ADDISON        CLOUDY    52  45  76 NW9G18    30.10R
MESQUITE       CLOUDY    54  48  82 NW16G22   30.08R
LANCASTER      CLOUDY    53  47  81 NW15      30.09R
$$

TXZ091>094-102>105-117-120-121-131>134-221400-
NORTH CENTRAL TEXAS

CITY           SKY/WX    TMP DP  RH WIND       PRES   REMARKS
SHRMAN/DENISON CLOUDY    49  44  84 NW13      30.09S
GAINESVILLE    FAIR      47  43  87 NW14      30.12S
BOWIE          FAIR      47  44  88 NW13      30.13R
BRIDGEPORT     FAIR      50  45  83 NW9       30.15R
DECATUR        FAIR      48  44  87 NW3G16    30.11R
DENTON         FAIR      50  46  86 NW10      30.11R
MCKINNEY       CLOUDY    51  46  83 NW16      30.09R
BONHAM         CLOUDY    49  45  85 NW12G17   30.07S
GREENVILLE     CLOUDY    54  50  87 NW10G16   30.07R
ROCKWALL       CLOUDY    53  47  80 MISG      30.08R
TERRELL        CLOUDY    54  47  77 NW16G23   30.07R
WAXAHACHIE     CLOUDY    52  48  87 NW16G23   30.10R
CLEBURNE       FAIR      52  46  82 N18G25    30.11S
GRANBURY       PTSUNNY   53  45  74 NW8G17    30.14R
$$

TXZ083>090-098>101-113>116-127>130-139>142-154-155-221400-
WESTERN NORTH TEXAS

CITY           SKY/WX    TMP DP  RH WIND       PRES   REMARKS
WICHITA FALLS  FAIR      47  43  86 NW10      30.15R
WF-KICKAPOO    FAIR      48  43  85 NW12G18   30.17S
VERNON         CLOUDY    50  46  88 NW10      30.18R
ABILENE        PTSUNNY   48  45  89 N13       30.18R
ABILENE-DYESS  PTSUNNY   47  40  76 N12       30.18R
GRAHAM           N/A     49  49 100 NW6       30.14R
BRECKENRIDGE   FAIR      51  43  73 N12       30.16R
CISCO          PTSUNNY   48  45  87 N13       30.15R
EASTLAND       CLOUDY    50  44  79 N10       30.15R
RANGER         PTSUNNY   49  44  83 N12G18    30.14R
MINERAL WELLS  FAIR      50  44  80 N14       30.11S
STEPHENVILLE   CLOUDY    50  44  80 N10G16    30.16R
COMANCHE       CLOUDY    50  46  86 N12       30.15R
COLEMAN        CLOUDY    48  43  82 N9        30.17R
BRADY          PTSUNNY   46  45  93 N13       30.16R
$$

TXZ143>147-156>162-174-175-221400-
CENTRAL TEXAS

CITY           SKY/WX    TMP DP  RH WIND       PRES   REMARKS
WACO           CLOUDY    53  47  79 N15       30.09R
WACO-TSTC      CLOUDY    54  48  82 N14       30.10R
WACO-MCGREGOR  CLOUDY    52  47  83 N10       30.11R
HILLSBORO      CLOUDY    53  49  86 NW14G23   30.09R
CORSICANA      FAIR      53  48  83 N10       30.08R
MEXIA          FAIR      53  47  80 NW14      30.06S
HEARNE         CLOUDY    53  48  83 NW15G22   30.09R
CAMERON        CLOUDY    53  47  79 N12       30.10R
TEMPLE         CLOUDY    52  47  83 N14       30.11R
KILLEEN        CLOUDY    52  45  76 NW12      30.11R
KILLEEN-SKYLRK CLOUDY    52  47  83 N9        30.12R
FORT HOOD      CLOUDY    51  47  87 N13       30.08R
GATESVILLE     CLOUDY    52  45  76 N16       30.13R
HAMILTON       CLOUDY    51  47  84 N14       30.13R
LAMPASAS       CLOUDY    50  45  81 N7        30.12R
$$

TXZ095>097-106>112-122>126-135>138-148>153-164>167-221400-
EAST TEXAS

CITY           SKY/WX    TMP DP  RH WIND       PRES   REMARKS
PARIS          CLOUDY    52  48  87 NW15      30.03R
SULPHUR SPRNGS CLOUDY    53  50  87 NW16      30.06R
MOUNT PLEASANT CLOUDY    53  51  94 NW14G20   30.03R
GILMER         CLOUDY    53  51  95 NW12G17   30.01S
MINEOLA        CLOUDY    54  50  87 NW15      30.04R
TYLER          CLOUDY    54  51  90 NW12      30.03R
LONGVIEW       CLOUDY    55  55 100 NW14      29.99R
MARSHALL       CLOUDY    55  52  90 NW12G17   30.01R
ATHENS         CLOUDY    54  50  87 N6        30.04R
PALESTINE      CLOUDY    54  51  89 NW9       30.06R
JACKSONVILLE   CLOUDY    52  52  99 NW10G16   30.04R
HENDERSON      CLOUDY    54  52  94 W8        30.02R
CENTER         CLOUDY    58  56  95 MISG      29.98R
NACOGDOCHES      N/A     56  54  93 NW13      30.00R
LUFKIN         CLOUDY    57  55  93 NW12G21   29.99R
$$

SUPPLEMENTAL OBSERVATIONS (NWS FORT WORTH AREA)

CITY           SKY/WX    TMP DP  RH WIND       PRES   REMARKS
DENISON DAM      N/A     50  45  81 N22         N/A
CADDO GRASSLND   N/A     50  45  81 NW6G15      N/A
LBJ GRASSLAND    N/A     48  43  81 NW8         N/A
POSSUM KINGDOM   N/A     50  45  81 NW7         N/A
GRANBURY         N/A     54  45  71 NW10G25     N/A
COMANCHE         N/A     50  43  76 N14         N/A
MCGREGOR         N/A     52  45  76 N9G17       N/A
TEMPLE           N/A     54  46  76 N14G24      N/A
LAKE LIMESTONE   N/A     55  48  76 NW8G17      N/A
ATHENS           N/A     54  50  87 NW3         N/A
PALESTINE        N/A     54  48  82 NW8G17      N/A
$$

SUPPLEMENTAL OBSERVATIONS (NWS NORMAN AREA)

CITY           SKY/WX    TMP DP  RH WIND       PRES   REMARKS
GOODLETT         N/A     50  40  69 NW14      30.18S
ODELL            N/A     49  46  88 NW10      30.18S
CROWELL          N/A     49  43  80 NW10      30.19R
KNOX CITY        N/A     51  43  72 NW8       30.20R
SEYMOUR          N/A     49  45  85 NW10      30.18S
MILLERS CREEK    N/A     48  43  81 NW7         N/A
$$

SUPPLEMENTAL OBSERVATIONS (NWS SAN ANGELO AREA)

CITY           SKY/WX    TMP DP  RH WIND       PRES   REMARKS
WEINERT          N/A     51  43  76 NW7       30.19R
HASKELL          N/A     50  42  76 N10       30.19R
THROCKMORTON     N/A     48  44  87 NW9       30.19R
STAMFORD         N/A     49  44  80 N9        30.20R
CLYDE            N/A     47  43  87 N13       30.18R
HAMBY            N/A     48  43  81 N6          N/A
IVIE RESERVOIR   N/A     54  45  71 NW7         N/A
COLORADO BEND    N/A     50  45  81 N8          N/A
$$

SUPPLEMENTAL OBSERVATIONS (NWS SHREVEPORT AREA)

CITY           SKY/WX    TMP DP  RH WIND       PRES   REMARKS
TEXARKANA        N/A     57  55  94 W5          N/A
LINDEN           N/A     55  52  88 W8          N/A
CADDO LAKE       N/A     57  54  88 NW6         N/A
LUFKIN           N/A     57  52  82 MISG        N/A
N SABINE NF      N/A     61  59  94 MISG        N/A
$$

SUPPLEMENTAL OBSERVATIONS ARE A COLLECTION OF AUTOMATED INSTRUMENTS
THAT ARE MAINTAINED BY A VARIETY OF FEDERAL AND STATE AGENCIES.
CERTAIN ELEMENTS...SUCH AS HUMIDITY VALUES AND SUSTAINED WIND
SPEEDS...MAY BE APPROXIMATED.





USA.gov is the U.S. government's official web portal to all federal, state and local government web resources and services.